Trang, Thailand

3:01 AM +07 on April 20, 2018 (GMT +0700)
Trang

Weather History for VTST - November, 2013

Change the Weather History Date:

Friday, November 15, 2013

  Actual Average Record
Temperature  
Mean Temperature 84 °F -  
Max Temperature 92 °F 87 °F - ()
Min Temperature 75 °F 72 °F - ()
Cooling Degree Days 18    
Growing Degree Days 34 (Base 50)    
Moisture  
Dew Point 75 °F    
Average Humidity 73    
Maximum Humidity 100    
Minimum Humidity 47    
Precipitation  
Precipitation 0.00 in 0.21 in - ()
Sea Level Pressure  
Sea Level Pressure 29.75 in    
Wind  
Wind Speed 3 mph ()    
Max Wind Speed 12 mph    
Max Gust Speed -    
Visibility 5.8 miles    
Events Thunderstorm    
T = Trace of Precipitation, MM = Missing Value Source: Averaged Metar Reports

Daily Weather History Graph

Daily Weather History Graph

Search for Another Location

Airport or City:

Trip Planner

Search our weather history database for the weather conditions in past years. The results will help you decide how hot, cold, wet, or windy it might be!

Date:

Astronomy

Nov. 15, 2013 Rise Set
Actual Time 6:12 AM +07 5:59 PM +07
Civil Twilight 5:50 AM +07 6:21 PM +07
Nautical Twilight 5:25 AM +07 6:46 PM +07
Astronomical Twilight 4:59 AM +07 7:12 PM +07
Moon 4:16 PM +07 (11/15) 4:02 AM +07 (11/15)
Length of Visible Light 12h 30m
Length of Day
11h 46m
Waxing Gibbous, 94% of the Moon is Illuminated
Nov 15
Waxing Gibbous
Nov 17
Full
Nov 26
Last Quarter
Dec 3
New
Dec 9
First Quarter

Hourly Weather History & Observations

Time (+07) Temp. Heat Index Dew Point Humidity Pressure Visibility Wind Dir Wind Speed Gust Speed Precip Events Conditions
1:00 AM 78 °F - 76 °F 93% 29.81 in 6 mi Calm Calm - -   Mist
4:00 AM 77 °F - 76 °F 95% 29.78 in 4 mi Calm Calm - -   Mist
7:00 AM 76 °F - 75 °F 97% 29.81 in 2 mi Calm Calm - -   Mist
7:00 AM 75.2 °F - 75.2 °F 100% 29.77 in 2.5 mi Calm Calm - N/A   Mostly Cloudy
8:00 AM 78.8 °F - 78.8 °F 100% 29.80 in 5.0 mi Calm Calm - N/A   Mostly Cloudy
9:00 AM 82.4 °F 96.1 °F 82.4 °F 100% 29.80 in 5.6 mi Calm Calm - N/A   Mostly Cloudy
10:00 AM 87 °F - 78 °F 69% 29.83 in 7 mi East 4.6 mph - -   Scattered Clouds
10:00 AM 86.0 °F 96.9 °F 77.0 °F 74% 29.80 in 6.2 mi North 4.6 mph - N/A   Mostly Cloudy
11:00 AM 89.6 °F 99.8 °F 75.2 °F 62% 29.77 in 6.2 mi ENE 6.9 mph - N/A   Mostly Cloudy
12:00 PM 89.6 °F 99.8 °F 75.2 °F 62% 29.74 in 6.2 mi ESE 6.9 mph - N/A   Mostly Cloudy
1:00 PM 92 °F - 74 °F 47% 29.76 in 9 mi East 4.6 mph - -   Partly Cloudy
1:00 PM 91.4 °F 98.4 °F 71.6 °F 52% 29.71 in 6.2 mi ENE 8.1 mph - N/A   Mostly Cloudy
2:00 PM 91.4 °F 98.4 °F 71.6 °F 52% 29.68 in 6.2 mi NNE 11.5 mph - N/A   Mostly Cloudy
3:00 PM 87.8 °F 93.8 °F 71.6 °F 58% 29.68 in 6.2 mi NNE 9.2 mph - N/A   Mostly Cloudy
4:00 PM 89 °F - 73 °F 51% 29.71 in 7 mi ESE 4.6 mph - - Thunderstorm Thunderstorm
4:30 PM 89.6 °F 98.2 °F 73.4 °F 59% 29.68 in 6.2 mi NNE 6.9 mph - N/A   Partly Cloudy
5:00 PM 87.8 °F 95.6 °F 73.4 °F 62% 29.68 in 6.2 mi ENE 5.8 mph - N/A   Partly Cloudy
6:00 PM 84.2 °F 89.6 °F 71.6 °F 66% 29.68 in 6.2 mi East 3.5 mph - N/A   Partly Cloudy
7:00 PM 82.4 °F 89.5 °F 75.2 °F 79% 29.68 in 6.2 mi Calm Calm - N/A   Partly Cloudy
10:00 PM 80 °F - 76 °F 85% 29.84 in 6 mi Calm Calm - -   Scattered Clouds